CW9203 Weather Reports


time (UTC)temp
C
wind
direction
speed
KPH
gust
KPH
rain 1hr
cm
rain 24hr
cm
rain mn
cm
humidity
%
barometer
mb
20260503214804 15 155 3.2 8.0 0.00 0.00 0.00 4 1036.2
20260503214303 14 155 4.8 9.7 0.00 0.00 0.00 4 1036.2
20260503213303 14 132 4.8 9.7 0.00 0.00 0.00 4 1036.2
20260503212804 15 152 4.8 8.0 0.00 0.00 0.00 4 1036.2
20260503211804 15 135 1.6 8.0 0.00 0.00 0.00 4 1036.3
20260503205804 14 103 3.2 4.8 0.00 0.00 0.00 4 1036.4
20260503205304 14 242 0.0 4.8 0.00 0.00 0.00 4 1036.4
20260503204303 14 113 1.6 4.8 0.00 0.00 0.00 4 1036.4
20260503203804 13 160 1.6 4.8 0.00 0.00 0.00 4 1036.5
20260503202304 13 123 1.6 4.8 0.00 0.00 0.00 4 1036.5
20260503200804 13 109 0.0 3.2 0.00 0.00 0.00 4 1036.4
20260503195304 13 131 0.0 1.6 0.00 0.00 0.00 4 1036.3
20260503193303 13 170 0.0 3.2 0.00 0.00 0.00 4 1036.1
20260503192804 13 139 0.0 3.2 0.00 0.00 0.00 4 1036.1
20260503192305 13 118 0.0 1.6 0.00 0.00 0.00 4 1036.0
20260503191804 13 162 1.6 4.8 0.00 0.00 0.00 4 1036.0
20260503191304 13 130 1.6 4.8 0.00 0.00 0.00 4 1035.9
20260503183803 13 137 0.0 0.0 0.00 0.00 0.00 4 1035.7
20260503182804 13 144 1.6 1.6 0.00 0.00 0.00 4 1035.5
20260503181804 13 123 0.0 3.2 0.00 0.00 0.00 4 1035.4
20260503180304 13 125 0.0 0.0 0.00 0.00 0.00 4 1035.4
20260503175804 13 126 0.0 1.6 0.00 0.00 0.00 4 1035.4
20260503175305 13 124 1.6 1.6 0.00 0.00 0.00 4 1035.4
20260503174804 13 126 0.0 1.6 0.00 0.00 0.00 4 1035.4
20260503173303 13 107 1.6 4.8 0.00 0.00 0.00 4 1035.2
20260503172804 13 126 1.6 4.8 0.00 0.00 0.00 4 1035.1
20260503172305 12 115 1.6 3.2 0.00 0.00 0.00 4 1035.2
20260503171304 12 170 0.0 1.6 0.00 0.00 0.00 4 1035.2
20260503150304 13 122 0.0 3.2 0.00 0.00 0.00 4 1035.4
20260503131304 13 126 3.2 8.0 0.00 0.00 0.00 4 1036.1
20260503130304 13 132 3.2 4.8 0.00 0.00 0.00 4 1036.1
20260503110804 13 92 1.6 1.6 0.00 0.00 0.00 4 1036.0
20260503090303 13 139 1.6 3.2 0.00 0.00 0.00 4 1035.3
20260503081304 13 138 0.0 0.0 0.00 0.00 0.00 6 1035.1
20260503080303 13 156 1.6 3.2 0.00 0.00 0.00 6 1035.1
20260503072804 14 132 0.0 3.2 0.00 0.00 0.00 25 1034.7
20260503072305 14 171 0.0 1.6 0.00 0.00 0.00 30 1034.7
20260503054804 16 26 1.6 4.8 0.00 0.00 0.00 62 1034.1
20260503053304 16 13 0.0 3.2 0.00 0.00 0.00 63 1034.1
20260503052803 16 27 1.6 3.2 0.00 0.00 0.00 63 1034.1
20260503050804 16 15 1.6 8.0 0.00 0.00 0.00 64 1034.0
20260503050304 16 27 3.2 8.0 0.00 0.00 0.00 64 1034.0
20260503043304 17 9 4.8 9.7 0.00 0.00 0.00 65 1034.1
20260503041803 17 53 3.2 4.8 0.00 0.00 0.00 64 1034.1
20260503040804 17 6 0.0 4.8 0.00 0.00 0.00 64 1034.2
20260503040303 17 19 0.0 1.6 0.00 0.00 0.00 64 1034.2
20260503034804 17 58 1.6 8.0 0.00 0.00 0.00 64 1034.1
20260503034304 17 49 1.6 4.8 0.00 0.00 0.00 64 1034.1
20260503033804 17 18 4.8 8.0 0.00 0.00 0.00 64 1034.1
20260503033303 17 58 3.2 4.8 0.00 0.00 0.00 64 1034.2
20260503025305 18 49 1.6 3.2 0.00 0.00 0.00 64 1034.1
20260503022803 17 20 4.8 9.7 0.00 0.00 0.00 64 1034.2
20260503021804 17 80 4.8 9.7 0.00 0.00 0.00 64 1034.3
20260503021303 18 80 3.2 8.0 0.00 0.00 0.00 64 1034.3
20260503020304 18 63 3.2 9.7 0.00 0.00 0.00 64 1034.4
20260503015305 18 24 1.6 9.7 0.00 0.00 0.00 64 1034.4
20260503014804 18 115 4.8 11.3 0.00 0.00 0.00 64 1034.5
20260503014304 18 10 6.4 8.0 0.00 0.00 0.00 64 1034.5
20260503013304 18 123 4.8 9.7 0.00 0.00 0.00 63 1034.6
20260503012305 18 56 4.8 9.7 0.00 0.00 0.00 63 1034.7
20260503011804 18 56 3.2 4.8 0.00 0.00 0.00 64 1034.7
20260503010304 17 44 1.6 4.8 0.00 0.00 0.00 64 1035.0
20260503005804 18 134 1.6 4.8 0.00 0.00 0.00 64 1035.1
20260503004804 17 85 3.2 8.0 0.00 0.00 0.00 64 1035.1
20260503004303 17 49 3.2 11.3 0.00 0.00 0.00 64 1035.2
20260503003804 17 105 3.2 4.8 0.00 0.00 0.00 64 1035.3
20260503003303 17 140 4.8 9.7 0.00 0.00 0.00 64 1035.3
20260503002803 17 147 3.2 11.3 0.00 0.00 0.00 64 1035.4
20260503002305 17 118 4.8 9.7 0.00 0.00 0.00 64 1035.5
20260503000304 17 95 4.8 11.3 0.00 0.00 0.00 63 1035.8
20260502235305 17 122 4.8 8.0 0.00 0.00 0.00 63 1036.0
20260502234304 17 138 4.8 9.7 0.00 0.00 0.00 63 1036.1
20260502233804 17 132 4.8 9.7 0.00 0.00 0.00 63 1036.2
20260502232305 16 138 3.2 8.0 0.00 0.00 0.00 57 1036.4
20260502231304 16 145 3.2 9.7 0.00 0.00 0.00 58 1036.5
20260502230804 16 134 4.8 9.7 0.00 0.00 0.00 60 1036.5
20260502225803 16 165 3.2 9.7 0.00 0.00 0.00 54 1036.6
20260502224304 15 124 3.2 9.7 0.00 0.00 0.00 36 1036.6
20260502222803 15 103 4.8 8.0 0.00 0.00 0.00 40 1036.7
20260502221304 15 133 1.6 4.8 0.00 0.00 0.00 44 1036.7
20260502220304 15 132 3.2 8.0 0.00 0.00 0.00 40 1036.7
20260502215804 15 133 3.2 4.8 0.00 0.00 0.00 38 1036.8
20260502215305 15 125 1.6 8.0 0.00 0.00 0.00 35 1036.8